User: anonymous   Login
Location: Oshawa
(43.9000°N, 78.8670°W)
Time: 23:46:52
(UTC-04:00)
Language:

Altair - Orbit

View from above orbital plane
View from above orbital plane
View from above satellite
View from above satellite

Ground track
Ground track

The orbit data is extracted from the following two-line orbital elements,

1 00050U 60009B   14294.42043862 -.00000014  00000-0  66208-3 0  1273
2 00050 047.2333 053.4360 0113693 288.2064 070.6378 12.20084308418421
Epoch (UTC): 21 October 2014 10:05:25
Eccentricity: 0.0113693
inclination: 47.2333°
perigee height: 1501 km
apogee height: 1683 km
right ascension of ascending node: 53.4360°
argument of perigee: 288.2064°
revolutions per day: 12.20084308
mean anomaly at epoch: 70.6378°
orbit number at epoch: 41842

The dashed part of the orbit path shows where the satellite is in the earth's shadow,  

DLR